No particular awareness of the weather is required.    There are no Weather-warnings


Meteo18 Weather Cam more information Meteo18 Weather Cam


Thunder radar more information blitzortung!


Rain radar more information rain snow radar


Visit our other weather sites:

Template documentation
and downloads

And another site



Weather Underground History page Text

Daily Summary for February 25, 2018 Units:  English    Metric   Both
« Previous Day
Next Day »
Daily Weekly Monthly Yearly Custom
  High: Low: Average:
Temperature: TemperatureC °F -2.7 °F -0.5 °F
Dew Point: DewpointC °F -11.9 °F -8.1 °F
Humidity: Humidity % 42 % 57 %
Wind Speed: WindSpeedKMH mph 0.0 mph 15.9 mph
Wind Gust: WindSpeedGustKMH mph - -
Wind:- - NE
Pressure: PressurehPa in 1014.4 in -
Precipitation: 0.0 in    
Historical Graphs
 
 
Tabular Data for February 25, 2018
Time Temperature Dew Point Pressure Wind Wind Speed Wind Gust Humidity Rainfall Rate (Hourly)
TemperatureC °F DewpointC °F PressurehPa in Calm     Humidity % HourlyPrecipMM in
00:01 0.2 °F -5.8 °F 1014.4 in NNE 11.1 mph 17.7 mph 64 % 0.0 in
00:07 0.2 °F -5.8 °F 1014.4 in NE 11.1 mph 17.7 mph 64 % 0.0 in
00:13 0.1 °F -5.9 °F 1014.4 in NE 17.7 mph 17.7 mph 64 % 0.0 in
00:19 0.1 °F -5.9 °F 1014.8 in NE 13.0 mph 19.3 mph 64 % 0.0 in
00:25 0.0 °F -6.0 °F 1014.4 in NE 11.1 mph 17.7 mph 64 % 0.0 in
00:31 -0.1 °F -5.9 °F 1014.4 in NNE 9.7 mph 12.9 mph 65 % 0.0 in
00:37 -0.2 °F -6.0 °F 1014.4 in NNE 16.3 mph 16.3 mph 65 % 0.0 in
00:43 -0.2 °F -6.0 °F 1014.8 in NE 6.4 mph 12.9 mph 65 % 0.0 in
00:49 -0.3 °F -6.1 °F 1014.8 in NNE 7.9 mph 16.1 mph 65 % 0.0 in
00:55 -0.3 °F -6.1 °F 1014.4 in NE 11.1 mph 16.1 mph 65 % 0.0 in
01:01 -0.3 °F -6.1 °F 1014.4 in NE 14.3 mph 14.5 mph 65 % 0.0 in
01:07 -0.3 °F -5.9 °F 1014.8 in NNE 14.3 mph 16.1 mph 66 % 0.0 in
01:13 -0.3 °F -6.1 °F 1014.8 in NE 11.1 mph 14.5 mph 65 % 0.0 in
01:19 -0.3 °F -5.9 °F 1014.8 in NE 13.0 mph 17.7 mph 66 % 0.0 in
01:25 -0.3 °F -5.9 °F 1014.8 in ENE 11.1 mph 12.9 mph 66 % 0.0 in
01:31 -0.3 °F -5.9 °F 1014.8 in NE 11.1 mph 14.5 mph 66 % 0.0 in
01:37 -0.4 °F -6.0 °F 1014.8 in NNE 11.1 mph 17.7 mph 66 % 0.0 in
01:43 -0.3 °F -5.9 °F 1014.8 in NE 6.4 mph 17.7 mph 66 % 0.0 in
01:47 -0.4 °F -5.8 °F 1014.8 in NE 9.7 mph 11.3 mph 67 % 0.0 in
01:53 -0.4 °F -5.8 °F 1014.8 in NNE 4.7 mph 11.3 mph 67 % 0.0 in
01:59 -0.4 °F -5.8 °F 1014.8 in NNE 4.7 mph 12.9 mph 67 % 0.0 in
02:05 -0.4 °F -6.0 °F 1014.8 in NNE 14.3 mph 17.7 mph 66 % 0.0 in
02:11 -0.4 °F -6.2 °F 1014.8 in NNE 14.3 mph 22.5 mph 65 % 0.0 in
02:17 -0.4 °F -6.0 °F 1014.8 in ENE 13.0 mph 19.3 mph 66 % 0.0 in
02:23 -0.3 °F -6.1 °F 1015.1 in NNE 14.3 mph 19.3 mph 65 % 0.0 in
02:29 -0.3 °F -6.1 °F 1015.1 in NE 16.3 mph 22.5 mph 65 % 0.0 in
02:35 -0.4 °F -6.2 °F 1015.1 in NE 9.7 mph 14.5 mph 65 % 0.0 in
02:41 -0.4 °F -6.2 °F 1015.1 in NE 6.4 mph 22.5 mph 65 % 0.0 in
02:47 -0.4 °F -6.0 °F 1015.1 in NNE 7.9 mph 12.9 mph 66 % 0.0 in
02:53 -0.6 °F -6.2 °F 1015.1 in NE 13.0 mph 14.5 mph 66 % 0.0 in
02:59 -0.6 °F -6.2 °F 1015.1 in NNE 7.9 mph 19.3 mph 66 % 0.0 in
03:05 -0.7 °F -6.1 °F 1015.1 in ENE 4.7 mph 11.3 mph 67 % 0.0 in
03:11 -0.8 °F -6.2 °F 1015.1 in North 9.7 mph 19.3 mph 67 % 0.0 in
03:17 -0.8 °F -6.2 °F 1015.1 in NE 7.9 mph 12.9 mph 67 % 0.0 in
03:23 -0.9 °F -6.1 °F 1015.1 in NE 9.7 mph 19.3 mph 68 % 0.0 in
03:29 -1.0 °F -6.0 °F 1014.8 in NE 13.0 mph 19.3 mph 69 % 0.0 in
03:35 -1.0 °F -6.0 °F 1014.8 in NNE 13.0 mph 22.5 mph 69 % 0.0 in
03:41 -1.1 °F -6.1 °F 1014.8 in NNE 16.3 mph 19.3 mph 69 % 0.0 in
03:47 -1.1 °F -6.1 °F 1014.8 in NE 11.1 mph 16.1 mph 69 % 0.0 in
03:53 -1.1 °F -6.1 °F 1014.8 in NNE 13.0 mph 25.7 mph 69 % 0.0 in
03:59 -1.1 °F -6.1 °F 1014.8 in NE 7.9 mph 20.9 mph 69 % 0.0 in
04:05 -1.2 °F -6.0 °F 1014.8 in NE 14.3 mph 17.7 mph 70 % 0.0 in
04:11 -1.2 °F -6.2 °F 1015.1 in ENE 19.5 mph 19.5 mph 69 % 0.0 in
04:17 -1.2 °F -6.0 °F 1015.1 in NE 16.3 mph 17.7 mph 70 % 0.0 in
04:23 -1.3 °F -6.1 °F 1015.1 in NE 19.5 mph 20.9 mph 70 % 0.0 in
04:29 -1.3 °F -6.1 °F 1015.1 in NNE 16.3 mph 22.5 mph 70 % 0.0 in
04:35 -1.3 °F -6.1 °F 1015.1 in NNE 9.7 mph 19.3 mph 70 % 0.0 in
04:41 -1.3 °F -6.1 °F 1015.1 in NNE 7.9 mph 20.9 mph 70 % 0.0 in
04:47 -1.3 °F -6.1 °F 1015.1 in NE 25.9 mph 25.9 mph 70 % 0.0 in
04:53 -1.4 °F -6.2 °F 1015.1 in ENE 16.3 mph 22.5 mph 70 % 0.0 in
05:00 -1.4 °F -6.0 °F 1015.1 in NE 22.7 mph 24.1 mph 71 % 0.0 in
05:06 -1.5 °F -6.3 °F 1015.1 in NE 13.0 mph 27.4 mph 70 % 0.0 in
05:12 -1.6 °F -6.2 °F 1015.1 in North 17.7 mph 27.4 mph 71 % 0.0 in
05:18 -1.6 °F -6.2 °F 1015.1 in NNE 6.4 mph 20.9 mph 71 % 0.0 in
05:24 -1.6 °F -6.2 °F 1015.1 in North 25.9 mph 25.9 mph 71 % 0.0 in
05:30 -1.7 °F -6.3 °F 1015.1 in ENE 6.4 mph 17.7 mph 71 % 0.0 in
05:36 -1.7 °F -6.3 °F 1015.1 in NE 17.7 mph 20.9 mph 71 % 0.0 in
05:42 -1.8 °F -6.2 °F 1015.1 in NNE 6.4 mph 24.1 mph 72 % 0.0 in
05:48 -1.8 °F -6.4 °F 1015.1 in ENE 13.0 mph 24.1 mph 71 % 0.0 in
05:54 -1.8 °F -6.4 °F 1015.5 in NE 20.9 mph 20.9 mph 71 % 0.0 in
06:00 -1.8 °F -6.4 °F 1015.5 in NNE 11.1 mph 25.7 mph 71 % 0.0 in
06:06 -1.8 °F -6.4 °F 1015.5 in NNE 19.5 mph 25.7 mph 71 % 0.0 in
06:12 -1.9 °F -6.5 °F 1015.5 in ENE 24.1 mph 29.0 mph 71 % 0.0 in
06:18 -1.9 °F -6.6 °F 1015.5 in ENE 25.9 mph 30.6 mph 70 % 0.0 in
06:24 -1.9 °F -6.6 °F 1015.5 in NE 17.7 mph 30.6 mph 70 % 0.0 in
06:30 -1.9 °F -6.6 °F 1015.8 in ENE 22.7 mph 29.0 mph 70 % 0.0 in
06:36 -2.1 °F -6.8 °F 1015.8 in ENE 13.0 mph 30.6 mph 70 % 0.0 in
06:42 -2.1 °F -6.8 °F 1015.8 in NNE 20.9 mph 29.0 mph 70 % 0.0 in
06:48 -2.2 °F -6.9 °F 1015.8 in NNE 17.7 mph 20.9 mph 70 % 0.0 in
06:54 -2.2 °F -6.9 °F 1015.8 in NNE 19.5 mph 30.6 mph 70 % 0.0 in
07:00 -2.2 °F -6.9 °F 1015.8 in NE 6.4 mph 27.4 mph 70 % 0.0 in
07:06 -2.3 °F -7.0 °F 1016.1 in NE 11.1 mph 30.6 mph 70 % 0.0 in
07:12 -2.3 °F -7.0 °F 1016.1 in NE 16.3 mph 20.9 mph 70 % 0.0 in
07:18 -2.4 °F -7.1 °F 1015.8 in NNE 9.7 mph 25.7 mph 70 % 0.0 in
07:24 -2.4 °F -7.3 °F 1015.8 in ENE 22.7 mph 29.0 mph 69 % 0.0 in
07:30 -2.4 °F -7.1 °F 1016.1 in NE 14.3 mph 24.1 mph 70 % 0.0 in
07:36 -2.5 °F -7.4 °F 1016.1 in NNE 24.1 mph 27.4 mph 69 % 0.0 in
07:42 -2.6 °F -7.5 °F 1016.1 in NE 11.1 mph 29.0 mph 69 % 0.0 in
07:48 -2.6 °F -7.3 °F 1016.1 in NE 20.9 mph 25.7 mph 70 % 0.0 in
07:54 -2.6 °F -7.5 °F 1016.1 in NNE 25.9 mph 33.8 mph 69 % 0.0 in
08:00 -2.6 °F -7.5 °F 1016.1 in NE 16.3 mph 32.2 mph 69 % 0.0 in
08:06 -2.6 °F -7.5 °F 1016.1 in NE 24.1 mph 27.4 mph 69 % 0.0 in
08:12 -2.7 °F -7.6 °F 1016.1 in NE 16.3 mph 24.1 mph 69 % 0.0 in
08:18 -2.7 °F -7.4 °F 1016.5 in NNE 25.9 mph 29.0 mph 70 % 0.0 in
08:24 -2.7 °F -7.4 °F 1016.5 in NE 24.1 mph 27.4 mph 70 % 0.0 in
08:30 -2.6 °F -7.5 °F 1016.5 in NNE 25.9 mph 32.2 mph 69 % 0.0 in
08:36 -2.6 °F -7.7 °F 1016.5 in NNE 24.1 mph 29.0 mph 68 % 0.0 in
08:42 -2.5 °F -7.6 °F 1016.5 in NE 13.0 mph 29.0 mph 68 % 0.0 in
08:48 -2.4 °F -7.5 °F 1016.5 in NNE 32.0 mph 35.4 mph 68 % 0.0 in
08:54 -2.4 °F -7.5 °F 1016.8 in NE 16.3 mph 24.1 mph 68 % 0.0 in
09:00 -2.3 °F -7.4 °F 1016.8 in NE 24.1 mph 33.8 mph 68 % 0.0 in
09:06 -2.3 °F -7.6 °F 1016.8 in NE 14.3 mph 25.7 mph 67 % 0.0 in
09:12 -2.2 °F -7.5 °F 1016.8 in ENE 7.9 mph 35.4 mph 67 % 0.0 in
09:18 -2.2 °F -7.7 °F 1016.8 in NNE 25.9 mph 27.4 mph 66 % 0.0 in
09:24 -2.1 °F -7.6 °F 1017.2 in NNE 11.1 mph 35.4 mph 66 % 0.0 in
09:30 -2.1 °F -7.8 °F 1016.8 in NE 14.3 mph 33.8 mph 65 % 0.0 in
09:36 -2.0 °F -7.5 °F 1017.2 in ENE 14.3 mph 27.4 mph 66 % 0.0 in
09:42 -1.9 °F -7.4 °F 1017.2 in NE 16.3 mph 24.1 mph 66 % 0.0 in
09:48 -1.8 °F -7.5 °F 1017.2 in NE 24.1 mph 29.0 mph 65 % 0.0 in
09:54 -1.9 °F -7.6 °F 1017.2 in ENE 14.3 mph 27.4 mph 65 % 0.0 in
10:00 -1.8 °F -7.7 °F 1017.2 in NE 20.9 mph 29.0 mph 64 % 0.0 in
10:06 -1.7 °F -7.2 °F 1017.2 in NE 14.3 mph 19.3 mph 66 % 0.0 in
10:12 -1.5 °F -7.2 °F 1017.2 in NE 9.7 mph 24.1 mph 65 % 0.0 in
10:18 -1.4 °F -7.5 °F 1017.2 in NE 20.9 mph 32.2 mph 63 % 0.0 in
10:24 -1.4 °F -7.3 °F 1017.2 in NE 9.7 mph 25.7 mph 64 % 0.0 in
10:30 -1.3 °F -7.4 °F 1017.2 in ENE 7.9 mph 22.5 mph 63 % 0.0 in
10:36 -1.3 °F -7.4 °F 1017.2 in NE 28.8 mph 30.6 mph 63 % 0.0 in
10:42 -1.2 °F -7.1 °F 1017.2 in NE 25.9 mph 30.6 mph 64 % 0.0 in
10:48 -1.2 °F -7.3 °F 1017.2 in ENE 24.1 mph 29.0 mph 63 % 0.0 in
10:54 -1.1 °F -7.2 °F 1017.2 in NNE 27.4 mph 32.2 mph 63 % 0.0 in
11:00 -1.1 °F -7.2 °F 1017.2 in ENE 13.0 mph 29.0 mph 63 % 0.0 in
11:06 -1.1 °F -7.2 °F 1017.2 in NE 30.6 mph 30.6 mph 63 % 0.0 in
11:12 -0.9 °F -6.9 °F 1017.5 in NNE 16.3 mph 19.3 mph 64 % 0.0 in
11:18 -0.8 °F -7.2 °F 1017.5 in NE 22.7 mph 30.6 mph 62 % 0.0 in
11:24 -0.8 °F -7.2 °F 1017.5 in NNE 19.5 mph 30.6 mph 62 % 0.0 in
11:30 -0.7 °F -6.9 °F 1017.5 in NE 24.1 mph 32.2 mph 63 % 0.0 in
11:36 -0.7 °F -7.3 °F 1017.5 in NNE 24.1 mph 38.6 mph 61 % 0.0 in
11:42 -0.7 °F -7.5 °F 1017.5 in NE 19.5 mph 37.0 mph 60 % 0.0 in
11:48 -0.7 °F -7.3 °F 1017.5 in NE 32.0 mph 35.4 mph 61 % 0.0 in
11:54 -0.7 °F -7.5 °F 1017.2 in NE 22.7 mph 40.2 mph 60 % 0.0 in
12:00 -0.4 °F -7.2 °F 1017.5 in NE 30.6 mph 37.0 mph 60 % 0.0 in
12:06 -0.3 °F -6.9 °F 1017.5 in ENE 32.0 mph 32.2 mph 61 % 0.0 in
12:12 -0.1 °F -6.9 °F 1017.8 in NE 20.9 mph 29.0 mph 60 % 0.0 in
12:18 -0.1 °F -7.2 °F 1017.8 in NE 11.1 mph 35.4 mph 59 % 0.0 in
12:24 -0.1 °F -7.4 °F 1017.8 in ENE 22.7 mph 29.0 mph 58 % 0.0 in
12:30 0.1 °F -7.2 °F 1017.8 in ENE 9.7 mph 35.4 mph 58 % 0.0 in
12:36 0.1 °F -7.2 °F 1017.5 in NE 7.9 mph 29.0 mph 58 % 0.0 in
12:42 0.1 °F -7.4 °F 1017.5 in NNE 27.4 mph 37.0 mph 57 % 0.0 in
12:48 0.1 °F -7.2 °F 1017.5 in NE 28.8 mph 29.0 mph 58 % 0.0 in
12:54 0.3 °F -6.8 °F 1017.5 in NNE 19.5 mph 29.0 mph 59 % 0.0 in
13:00 0.4 °F -7.1 °F 1017.5 in NE 30.6 mph 37.0 mph 57 % 0.0 in
13:06 0.4 °F -7.1 °F 1017.5 in NE 7.9 mph 22.5 mph 57 % 0.0 in
13:12 0.5 °F -7.5 °F 1017.5 in NNE 25.9 mph 37.0 mph 55 % 0.0 in
13:18 0.6 °F -7.2 °F 1017.5 in NE 11.1 mph 33.8 mph 56 % 0.0 in
13:24 0.8 °F -7.5 °F 1017.5 in North 13.0 mph 38.6 mph 54 % 0.0 in
13:30 0.7 °F -7.1 °F 1017.5 in NE 19.5 mph 35.4 mph 56 % 0.0 in
13:36 0.8 °F -7.7 °F 1017.5 in NE 25.9 mph 38.6 mph 53 % 0.0 in
13:42 0.7 °F -7.5 °F 1017.5 in NNE 25.9 mph 40.2 mph 54 % 0.0 in
13:48 0.8 °F -7.2 °F 1017.5 in ENE 13.0 mph 30.6 mph 55 % 0.0 in
13:54 1.1 °F -6.7 °F 1017.5 in NE 17.7 mph 24.1 mph 56 % 0.0 in
14:00 1.1 °F -7.4 °F 1017.5 in North 20.9 mph 32.2 mph 53 % 0.0 in
14:06 1.2 °F -7.3 °F 1017.5 in NNE 24.1 mph 35.4 mph 53 % 0.0 in
14:12 1.1 °F -7.7 °F 1017.5 in NE 30.6 mph 32.2 mph 52 % 0.0 in
14:18 1.4 °F -7.4 °F 1017.5 in NNE 20.9 mph 29.0 mph 52 % 0.0 in
14:24 1.7 °F -7.6 °F 1017.5 in NNE 27.4 mph 33.8 mph 50 % 0.0 in
14:30 1.7 °F -7.4 °F 1017.5 in North 11.1 mph 24.1 mph 51 % 0.0 in
14:36 1.7 °F -7.9 °F 1017.5 in NE 27.4 mph 33.8 mph 49 % 0.0 in
14:42 1.8 °F -7.8 °F 1017.5 in NNE 19.5 mph 30.6 mph 49 % 0.0 in
14:48 1.8 °F -8.3 °F 1017.5 in NNE 30.6 mph 38.6 mph 47 % 0.0 in
14:54 1.7 °F -8.4 °F 1017.5 in NE 20.9 mph 40.2 mph 47 % 0.0 in
15:00 1.8 °F -8.3 °F 1017.5 in NE 17.7 mph 25.7 mph 47 % 0.0 in
15:06 1.9 °F -8.0 °F 1017.5 in NE 24.1 mph 35.4 mph 48 % 0.0 in
15:12 2.1 °F -8.0 °F 1017.5 in NNE 9.7 mph 29.0 mph 47 % 0.0 in
15:18 2.2 °F -8.2 °F 1017.5 in NE 14.3 mph 38.6 mph 46 % 0.0 in
15:24 2.4 °F -7.8 °F 1017.5 in NNE 16.3 mph 22.5 mph 47 % 0.0 in
15:30 2.3 °F -8.7 °F 1017.5 in ENE 22.7 mph 30.6 mph 44 % 0.0 in
15:37 2.4 °F -8.0 °F 1017.5 in North 7.9 mph 24.1 mph 46 % 0.0 in
15:43 2.4 °F -8.3 °F 1017.5 in East 9.7 mph 20.9 mph 45 % 0.0 in
15:49 2.6 °F -8.1 °F 1017.5 in NE 9.7 mph 30.6 mph 45 % 0.0 in
15:55 2.5 °F -8.2 °F 1017.5 in NNE 20.9 mph 27.4 mph 45 % 0.0 in
16:01 2.5 °F -8.2 °F 1017.5 in North 22.7 mph 30.6 mph 45 % 0.0 in
16:07 2.6 °F -7.9 °F 1017.5 in NNE 17.7 mph 30.6 mph 46 % 0.0 in
16:13 2.5 °F -8.5 °F 1017.5 in NE 22.7 mph 29.0 mph 44 % 0.0 in
16:19 2.6 °F -8.1 °F 1017.8 in NE 4.7 mph 25.7 mph 45 % 0.0 in
16:25 2.5 °F -8.8 °F 1017.8 in NE 27.4 mph 41.8 mph 43 % 0.0 in
16:31 2.4 °F -8.9 °F 1017.8 in ENE 11.1 mph 27.4 mph 43 % 0.0 in
16:37 2.5 °F -8.8 °F 1017.8 in ENE 24.1 mph 32.2 mph 43 % 0.0 in
16:43 2.4 °F -8.6 °F 1017.8 in NNE 17.7 mph 27.4 mph 44 % 0.0 in
16:49 2.3 °F -9.0 °F 1017.8 in NNE 24.1 mph 29.0 mph 43 % 0.0 in
16:55 2.3 °F -8.4 °F 1017.8 in NE 22.7 mph 24.1 mph 45 % 0.0 in
17:01 2.3 °F -8.7 °F 1017.8 in NNE 13.0 mph 27.4 mph 44 % 0.0 in
17:07 2.3 °F -8.4 °F 1017.8 in NE 17.7 mph 22.5 mph 45 % 0.0 in
17:13 2.2 °F -8.5 °F 1018.2 in NNE 9.7 mph 20.9 mph 45 % 0.0 in
17:19 2.1 °F -9.2 °F 1018.2 in NE 17.7 mph 30.6 mph 43 % 0.0 in
17:25 1.9 °F -9.7 °F 1018.2 in NNE 19.5 mph 33.8 mph 42 % 0.0 in
17:31 1.9 °F -9.1 °F 1018.2 in NNE 17.7 mph 20.9 mph 44 % 0.0 in
17:37 1.9 °F -9.1 °F 1018.2 in NNE 7.9 mph 20.9 mph 44 % 0.0 in
17:43 1.9 °F -9.4 °F 1018.2 in NE 14.3 mph 30.6 mph 43 % 0.0 in
17:49 1.8 °F -9.8 °F 1018.2 in NNE 27.4 mph 29.0 mph 42 % 0.0 in
17:55 1.7 °F -9.5 °F 1018.5 in ENE 11.1 mph 22.5 mph 43 % 0.0 in
18:01 1.6 °F -9.6 °F 1018.5 in NE 16.3 mph 19.3 mph 43 % 0.0 in
18:07 1.6 °F -9.6 °F 1018.5 in NNE 19.5 mph 22.5 mph 43 % 0.0 in
18:13 1.4 °F -9.8 °F 1018.5 in NE 19.5 mph 24.1 mph 43 % 0.0 in
18:19 1.3 °F -10.2 °F 1018.5 in North 16.3 mph 22.5 mph 42 % 0.0 in
18:25 1.1 °F -9.8 °F 1018.5 in NE 17.7 mph 32.2 mph 44 % 0.0 in
18:31 0.9 °F -9.7 °F 1018.5 in NNE 13.0 mph 22.5 mph 45 % 0.0 in
18:37 0.9 °F -10.3 °F 1018.5 in NNE 17.7 mph 33.8 mph 43 % 0.0 in
18:43 0.8 °F -10.1 °F 1018.8 in NE 13.0 mph 20.9 mph 44 % 0.0 in
18:49 0.7 °F -10.5 °F 1018.8 in NNE 13.0 mph 20.9 mph 43 % 0.0 in
18:55 0.6 °F -10.5 °F 1018.8 in NE 16.3 mph 22.5 mph 43 % 0.0 in
19:01 0.4 °F -10.2 °F 1018.8 in NE 9.7 mph 14.5 mph 45 % 0.0 in
19:07 0.3 °F -10.2 °F 1018.8 in NE 17.7 mph 17.7 mph 45 % 0.0 in
19:13 0.3 °F -10.5 °F 1018.8 in Calm   20.9 mph 44 % 0.0 in
19:19 0.2 °F -10.1 °F 1019.2 in NNE 6.4 mph 16.1 mph 46 % 0.0 in
19:25 0.2 °F -10.9 °F 1019.2 in NE 30.6 mph 30.6 mph 43 % 0.0 in
19:31 0.2 °F -10.9 °F 1019.2 in NE 11.1 mph 29.0 mph 43 % 0.0 in
19:37 0.2 °F -10.6 °F 1019.2 in NNE 13.0 mph 22.5 mph 44 % 0.0 in
19:43 0.0 °F -10.5 °F 1019.2 in NE 13.0 mph 25.7 mph 45 % 0.0 in
19:49 -0.1 °F -10.6 °F 1019.2 in NE 19.5 mph 25.7 mph 45 % 0.0 in
19:55 -0.2 °F -11.0 °F 1019.2 in NE 13.0 mph 33.8 mph 44 % 0.0 in
20:01 -0.2 °F -11.0 °F 1019.2 in NNE 19.5 mph 22.5 mph 44 % 0.0 in
20:07 -0.3 °F -10.8 °F 1019.2 in NNE 13.0 mph 22.5 mph 45 % 0.0 in
20:13 -0.4 °F -11.2 °F 1019.2 in North 13.0 mph 29.0 mph 44 % 0.0 in
20:19 -0.5 °F -11.0 °F 1019.2 in NNE 7.9 mph 19.3 mph 45 % 0.0 in
20:25 -0.6 °F -11.4 °F 1019.2 in NE 17.7 mph 20.9 mph 44 % 0.0 in
20:31 -0.6 °F -11.4 °F 1019.2 in NNE 9.7 mph 25.7 mph 44 % 0.0 in
20:37 -0.7 °F -11.4 °F 1019.2 in ENE 14.3 mph 25.7 mph 44 % 0.0 in
20:43 -0.8 °F -11.0 °F 1019.5 in NE 13.0 mph 22.5 mph 46 % 0.0 in
20:49 -0.8 °F -11.3 °F 1019.2 in NNE 14.3 mph 20.9 mph 45 % 0.0 in
20:55 -0.9 °F -11.6 °F 1019.2 in NNE 9.7 mph 22.5 mph 44 % 0.0 in
21:01 -0.9 °F -11.9 °F 1019.5 in NE 19.5 mph 24.1 mph 43 % 0.0 in
21:07 -0.9 °F -11.6 °F 1019.2 in NW 4.7 mph 20.9 mph 44 % 0.0 in
21:13 -1.0 °F -11.7 °F 1019.5 in NNE 6.4 mph 11.3 mph 44 % 0.0 in
21:19 -1.1 °F -11.8 °F 1019.5 in NNE 11.1 mph 20.9 mph 44 % 0.0 in
21:25 -1.1 °F -11.5 °F 1019.5 in NNE 13.0 mph 22.5 mph 45 % 0.0 in
21:31 -1.2 °F -11.3 °F 1019.5 in North 9.7 mph 24.1 mph 46 % 0.0 in
21:37 -1.3 °F -11.7 °F 1019.5 in NE 11.1 mph 19.3 mph 45 % 0.0 in
21:43 -1.3 °F -11.4 °F 1019.5 in NNE 7.9 mph 20.9 mph 46 % 0.0 in
21:49 -1.4 °F -11.3 °F 1019.5 in North 7.9 mph 20.9 mph 47 % 0.0 in
21:55 -1.5 °F -11.4 °F 1019.5 in North 4.7 mph 22.5 mph 47 % 0.0 in
22:01 -1.6 °F -11.4 °F 1019.5 in NNE 4.7 mph 27.4 mph 47 % 0.0 in
22:07 -1.6 °F -11.4 °F 1019.5 in NE 3.2 mph 29.0 mph 47 % 0.0 in
22:13 -1.7 °F -11.3 °F 1019.5 in NNE 16.3 mph 16.3 mph 48 % 0.0 in
22:19 -1.7 °F -11.5 °F 1019.5 in North 9.7 mph 20.9 mph 47 % 0.0 in
22:25 -1.7 °F -11.5 °F 1019.5 in North 16.3 mph 17.7 mph 47 % 0.0 in
22:31 -1.7 °F -11.5 °F 1019.5 in NE 16.3 mph 19.3 mph 47 % 0.0 in
22:37 -1.7 °F -11.5 °F 1019.5 in NE 13.0 mph 22.5 mph 47 % 0.0 in
22:43 -1.8 °F -11.4 °F 1019.5 in NE 13.0 mph 19.3 mph 48 % 0.0 in
22:49 -1.8 °F -11.4 °F 1019.5 in NNW 7.9 mph 20.9 mph 48 % 0.0 in
22:55 -1.9 °F -11.5 °F 1019.5 in NNE 6.4 mph 27.4 mph 48 % 0.0 in
23:01 -2.0 °F -11.3 °F 1019.9 in NE 16.3 mph 22.5 mph 49 % 0.0 in
23:07 -2.1 °F -11.4 °F 1019.5 in NNE 7.9 mph 19.3 mph 49 % 0.0 in
23:13 -2.1 °F -11.1 °F 1019.9 in NE 17.7 mph 17.7 mph 50 % 0.0 in
23:19 -2.1 °F -11.4 °F 1019.9 in NE 25.9 mph 27.4 mph 49 % 0.0 in
23:25 -2.2 °F -11.5 °F 1019.5 in NNE 16.3 mph 20.9 mph 49 % 0.0 in
23:31 -2.3 °F -11.3 °F 1019.5 in NNE 27.4 mph 27.4 mph 50 % 0.0 in
23:37 -2.4 °F -11.4 °F 1019.5 in NNE 16.3 mph 25.7 mph 50 % 0.0 in
23:43 -2.4 °F -11.4 °F 1019.5 in NNE 9.7 mph 24.1 mph 50 % 0.0 in
23:49 -2.4 °F -11.7 °F 1019.9 in NNE 13.0 mph 32.2 mph 49 % 0.0 in
23:55 -2.5 °F -11.8 °F 1019.5 in NE 19.5 mph 22.5 mph 49 % 0.0 in
Meteo18
Compliments of Weather Underground - 4 mb

Script developed by  Jim McMurry - jmcmurry@mwt.net Adapted for the template by  Wim van der Kuil - Leuven-Template.eu

You find our weather info also at:

European Weather Network

Weather Underground

Equipment we use:

Weather-station
Davis Vue

Weather-program
Meteobridge

Weather-server
Raspberry PI 2 B+

Provider
1 and 1

Davis Vue

Meteobridge

Raspberry PI 2 B+

1 and 1